RH
56 60 57 59 59 59 58 53 45 45 47 48 54 74 77 75 77 75 79 74 73 76 79 78 45 24 34 35 40 42 40 45 44 44 47 41 37 34 25 27 29 32 33
52 53 53 52 52 51 49 49 49 47 47 48 49 57 76 80 74 74 74 78 75 78 82 80 57 18 27 32 36 39 37 40 45 45 49 43 39 34 27 28 35 37 37
51 54 53 48 46 54 55 52 52 52 48 47 52 57 60 83 77 73 74 78 83 80 79 83 56 18 22 28 27 29 30 38 45 45 43 42 39 35 31 31 36 38 38
58 57 55 45 46 48 53 55 55 54 54 51 55 62 62 75 80 72 77 81 82 81 80 82 46 16 15 24 26 27 28 37 44 45 42 39 37 36 34 33 38 41 41
57 63 59 53 52 57 61 63 61 56 54 51 60 74 72 75 88 86 81 83 82 82 83 79 35 15 14 16 21 26 27 34 40 41 40 38 37 36 33 36 41 43 45
61 63 60 56 54 60 71 80 78 73 63 58 64 80 82 77 90 93 89 83 81 82 84 70 23 15 13 15 19 21 27 35 40 40 39 36 35 35 35 37 43 44 44
61 63 63 60 61 60 73 79 80 76 70 65 68 81 79 83 85 91 92 82 81 82 80 56 19 13 14 16 18 21 28 37 40 40 37 33 32 33 35 38 38 40 43
64 64 66 62 64 59 69 77 78 77 75 78 73 80 79 86 88 88 89 82 81 79 67 43 16 11 15 18 20 22 29 35 35 36 34 32 33 34 35 37 36 38 40
60 62 66 60 61 58 63 71 75 82 82 77 78 81 85 85 85 89 88 79 79 76 63 46 14 10 15 20 20 21 29 31 31 33 35 35 36 35 35 34 33 34 36
52 55 55 57 53 53 54 68 72 79 77 78 83 86 85 86 86 81 86 78 79 73 60 54 17 11 16 22 20 19 24 26 28 28 30 29 31 32 31 28 30 33 33
50 53 58 58 49 43 43 59 68 71 75 78 82 81 83 84 79 81 79 76 73 67 56 50 30 10 16 21 22 19 21 24 25 26 26 26 27 27 27 29 30 29 27
47 50 54 49 43 38 37 43 62 69 74 78 78 75 75 77 81 77 76 71 70 74 63 47 31 10 15 20 21 21 22 24 25 26 25 25 26 28 29 29 27 26 28
47 48 49 52 40 36 38 38 44 56 64 61 58 49 50 55 60 61 63 69 68 70 65 53 30 11 14 19 22 23 22 24 24 25 26 27 29 30 29 27 27 26 27
49 49 52 54 43 33 37 39 38 39 48 47 36 39 39 45 57 62 66 61 64 70 64 56 30 13 16 17 21 23 22 23 23 25 26 26 27 28 29 30 31 30 30
53 54 54 56 44 30 31 34 35 38 39 38 28 32 39 48 62 63 53 58 63 69 63 52 34 14 19 22 21 24 22 22 23 24 25 26 27 28 29 30 31 32 34
58 56 57 60 54 38 33 34 35 37 39 40 36 34 37 43 52 61 67 63 72 74 66 50 32 15 19 22 22 27 25 24 24 24 24 25 27 28 29 31 31 32 33
92 81 81 75 64 56 42 44 41 40 42 43 43 39 44 44 50 53 56 70 70 69 64 46 29 20 18 20 22 24 25 25 25 24 25 26 27 28 29 30 30 31 31
70 81 92 94 96 90 88 92 85 82 69 52 47 48 53 51 42 47 51 65 73 56 49 43 34 26 23 23 22 23 24 25 24 24 25 26 27 27 27 26 26 27 29
46 56 74 85 98 95 93 82 94 96 88 89 75 67 67 67 61 50 52 61 71 63 47 41 39 36 33 28 25 25 25 25 27 28 28 28 28 27 27 27 26 27 31
32 34 43 55 72 78 80 77 79 75 83 90 79 76 68 65 67 62 53 51 62 56 50 44 44 46 45 42 36 28 27 29 29 29 30 29 29 28 28 29 30 31 34
35 36 39 45 49 63 70 67 70 66 74 74 76 65 67 69 64 62 62 61 58 49 46 42 43 43 45 44 43 42 35 29 28 29 31 30 30 29 30 32 33 34 37
33 37 36 36 44 47 56 63 61 59 63 56 59 72 63 54 56 63 52 52 65 51 45 45 42 41 42 45 46 45 41 36 34 34 34 33 33 33 35 36 38 41 42
32 34 35 35 36 39 42 44 50 52 58 54 60 53 44 51 57 50 58 66 70 63 58 55 48 44 43 44 45 46 44 42 43 44 41 41 42 41 42 41 41 39 38
33 33 32 31 33 37 39 38 42 46 48 50 61 54 47 54 65 62 76 76 57 58 59 53 53 51 45 44 45 45 45 45 48 48 48 46 45 44 44 44 43 49 55
35 34 35 32 33 32 34 39 38 36 38 44 47 51 51 52 50 52 51 63 66 59 52 49 45 45 47 41 35 37 37 36 37 42 46 50 55 58 58 59 61 63 68
38 37 36 39 35 33 34 32 36 36 34 34 37 46 48 49 48 47 48 52 56 48 60 66 61 52 58 65 60 57 55 56 57 63 68 72 71 72 69 68 70 73 75